Cocoa Beach, FL

7:26 PM EDT on March 25, 2017 (GMT -0400)
Cape Canaveral Air Station Skid Strip

Weather History for KXMR - July, 2013

Change the Weather History Date:

Monday, July 29, 2013

  Actual Average (KCOF) Record (KCOF)
Temperature  
Mean Temperature 82 °F -  
Max Temperature 89 °F 85 °F 95 °F (1999)
Min Temperature 74 °F 74 °F 73 °F (2008)
Cooling Degree Days 16    
Growing Degree Days 32 (Base 50)    
Moisture  
Dew Point 75 °F    
Average Humidity 83    
Maximum Humidity 98    
Minimum Humidity 63    
Precipitation  
Precipitation 0.00 in - - ()
Sea Level Pressure  
Sea Level Pressure 30.11 in    
Wind  
Wind Speed 5 mph (SSE)    
Max Wind Speed 13 mph    
Max Gust Speed -    
Visibility 10 miles    
Events Rain    
Averages and records for this station are not official NWS values.
T = Trace of Precipitation, MM = Missing Value Source: NWS Daily Summary

Daily Weather History Graph

Daily Weather History Graph

Search for Another Location

Airport or City:

Trip Planner

Search our weather history database for the weather conditions in past years. The results will help you decide how hot, cold, wet, or windy it might be!

Date:

Astronomy

Jul. 29, 2013 Rise Set
Actual Time 6:42 AM EDT 8:14 PM EDT
Civil Twilight 6:16 AM EDT 8:40 PM EDT
Nautical Twilight 5:46 AM EDT 9:10 PM EDT
Astronomical Twilight 5:14 AM EDT 9:42 PM EDT
Moon 12:16 AM EDT (7/29) 1:40 PM EDT (7/29)
Length of Visible Light 14h 23m
Length of Day
13h 32m
Waning Gibbous, 51% of the Moon is Illuminated
Jul 29
Waning Gibbous
Jul 29
Last Quarter
Aug 6
New
Aug 14
First Quarter
Aug 20
Full

Hourly Weather History & Observations

Time (EDT) Temp. Heat Index Dew Point Humidity Pressure Visibility Wind Dir Wind Speed Gust Speed Precip Events Conditions
12:58 AM 75.4 °F - 73.8 °F 95% 30.08 in 10.0 mi East 5.8 mph - N/A   Clear
1:58 AM 76.5 °F - 75.0 °F 95% 30.07 in 10.0 mi SE 4.6 mph - N/A   Clear
2:58 AM 75.9 °F - 74.1 °F 94% 30.05 in 10.0 mi East 2.3 mph - N/A   Clear
3:58 AM 75.0 °F - 73.2 °F 94% 30.05 in 10.0 mi Calm Calm - N/A   Clear
4:58 AM 74.5 °F - 73.6 °F 97% 30.05 in 10.0 mi SE 4.6 mph - N/A   Clear
5:58 AM 74.8 °F - 73.9 °F 97% 30.06 in 10.0 mi South 4.6 mph - N/A   Clear
6:58 AM 74.7 °F - 74.1 °F 98% 30.08 in 10.0 mi SSE 2.3 mph - N/A   Clear
7:58 AM 77.7 °F - 75.7 °F 94% 30.10 in 10.0 mi South 2.3 mph - N/A   Partly Cloudy
8:58 AM 81.5 °F 87.8 °F 75.2 °F 81% 30.12 in 10.0 mi WSW 3.5 mph - N/A   Clear
9:58 AM 83.5 °F 90.6 °F 74.5 °F 74% 30.14 in 10.0 mi South 4.6 mph - N/A   Clear
10:58 AM 85.5 °F 94.6 °F 75.6 °F 72% 30.14 in 10.0 mi WSW 4.6 mph - N/A   Partly Cloudy
11:58 AM 85.1 °F 92.6 °F 73.9 °F 69% 30.14 in 10.0 mi NW 3.5 mph - N/A   Partly Cloudy
12:58 PM 88.0 °F 98.5 °F 75.9 °F 67% 30.14 in 10.0 mi SE 6.9 mph - N/A   Partly Cloudy
1:07 PM 87.8 °F 97.6 °F 75.2 °F 66% 30.13 in 10.0 mi SE 8.1 mph - N/A Rain Light Rain
1:18 PM 87.8 °F 97.6 °F 75.2 °F 66% 30.13 in 10.0 mi SE 10.4 mph - N/A   Clear
1:58 PM 88.2 °F 98.0 °F 75.0 °F 65% 30.13 in 10.0 mi SSE 10.4 mph - 0.00 in   Clear
2:58 PM 89.4 °F 100.0 °F 75.6 °F 63% 30.12 in 10.0 mi SE 11.5 mph - N/A   Clear
3:58 PM 84.0 °F 93.3 °F 76.6 °F 78% 30.12 in 10.0 mi ESE 9.2 mph - N/A   Clear
4:58 PM 83.7 °F 93.4 °F 77.2 °F 81% 30.12 in 10.0 mi ESE 8.1 mph - N/A   Clear
5:58 PM 86.4 °F 97.8 °F 77.2 °F 74% 30.11 in 10.0 mi SSE 12.7 mph - N/A   Clear
6:58 PM 84.9 °F 96.6 °F 78.1 °F 80% 30.11 in 10.0 mi SSE 10.4 mph - N/A   Clear
7:58 PM 82.6 °F 91.4 °F 77.4 °F 84% 30.13 in 10.0 mi SSE 8.1 mph - N/A   Clear
8:58 PM 80.4 °F 87.0 °F 77.5 °F 91% 30.14 in 10.0 mi SSE 3.5 mph - N/A   Clear
9:58 PM 78.4 °F - 76.6 °F 94% 30.16 in 10.0 mi SE 3.5 mph - N/A   Clear
10:58 PM 77.2 °F - 75.9 °F 96% 30.17 in 10.0 mi SSE 2.3 mph - N/A   Clear
11:58 PM 75.7 °F - 75.0 °F 98% 30.18 in 10.0 mi East 2.3 mph - N/A   Clear